Temp
-12 -12 -12 -12 -12 -12 -12 -12 -12 -12 -12 -12 -12 -12 -12 -12 -12 -12 -12 -12 -12 -12 -12 -12 -12 -12 -12 -13 -13 -12 -12 -12 -12 -12 -12 -11 -11 -11 -12 -12 -11 -11 -12 -12 -11 -11 -11 -11 -11 -11 -10 -10 -10 -11 -11 -11 -11 -11 -11 -11 -11 -11 -10
-12 -12 -12 -13 -12 -12 -12 -12 -12 -12 -12 -12 -12 -12 -12 -12 -12 -12 -12 -12 -12 -12 -12 -12 -12 -12 -12 -12 -12 -12 -12 -12 -12 -12 -12 -12 -11 -11 -12 -12 -12 -12 -11 -12 -12 -12 -11 -11 -11 -11 -10 -10 -10 -10 -10 -11 -11 -11 -11 -11 -11 -11 -10
-13 -13 -13 -13 -13 -13 -13 -12 -12 -12 -12 -12 -12 -12 -12 -12 -12 -12 -12 -12 -12 -12 -12 -12 -12 -12 -12 -12 -13 -12 -12 -12 -12 -12 -12 -12 -11 -11 -12 -12 -12 -12 -12 -12 -12 -12 -11 -11 -11 -11 -11 -11 -11 -10 -10 -10 -10 -10 -11 -11 -11 -11 -10
-13 -13 -13 -13 -13 -13 -13 -13 -13 -13 -12 -12 -12 -12 -12 -12 -12 -12 -12 -12 -12 -13 -13 -13 -12 -12 -12 -12 -13 -12 -12 -13 -12 -12 -12 -12 -11 -11 -11 -11 -11 -12 -12 -12 -12 -12 -12 -11 -11 -11 -11 -11 -11 -11 -10 -10 -10 -10 -10 -10 -10 -10 -10
-14 -13 -13 -13 -13 -13 -13 -13 -13 -13 -13 -13 -13 -13 -13 -13 -12 -12 -12 -12 -12 -13 -13 -13 -13 -13 -12 -12 -12 -12 -13 -13 -13 -12 -12 -12 -12 -12 -11 -11 -11 -12 -11 -12 -12 -12 -12 -11 -11 -11 -11 -11 -11 -11 -10 -10 -10 -10 -10 -10 -10 -10 -10
-14 -14 -14 -14 -14 -13 -13 -13 -13 -14 -13 -13 -13 -13 -13 -13 -13 -13 -13 -12 -13 -13 -13 -13 -13 -13 -13 -12 -12 -12 -12 -13 -13 -12 -12 -12 -12 -12 -11 -11 -12 -11 -11 -11 -11 -12 -12 -11 -11 -11 -11 -11 -11 -11 -10 -10 -10 -10 -10 -10 -10 -10 -10
-14 -14 -14 -14 -14 -14 -14 -14 -14 -14 -14 -14 -13 -13 -13 -13 -13 -13 -13 -13 -13 -13 -13 -13 -13 -13 -13 -13 -12 -12 -12 -13 -13 -13 -12 -12 -12 -12 -12 -12 -12 -11 -12 -12 -11 -12 -12 -12 -11 -11 -11 -11 -11 -11 -11 -10 -10 -10 -10 -10 -10 -10 -10
-15 -15 -15 -15 -14 -14 -14 -14 -14 -14 -14 -14 -14 -14 -14 -14 -13 -13 -13 -13 -13 -13 -13 -13 -13 -13 -13 -13 -13 -12 -12 -13 -13 -12 -12 -12 -12 -12 -12 -12 -12 -12 -12 -12 -12 -12 -12 -12 -12 -12 -11 -11 -11 -11 -11 -11 -11 -11 -10 -10 -10 -10 -10
-15 -15 -15 -15 -15 -15 -15 -15 -14 -14 -14 -14 -15 -15 -15 -14 -14 -14 -14 -13 -14 -14 -14 -14 -14 -13 -14 -14 -13 -13 -12 -13 -13 -13 -13 -12 -12 -12 -12 -12 -12 -12 -12 -12 -12 -12 -12 -12 -12 -12 -11 -11 -11 -11 -11 -11 -11 -11 -10 -10 -10 -10 -10
-15 -15 -15 -15 -15 -15 -15 -15 -15 -15 -15 -15 -15 -15 -15 -15 -15 -15 -15 -14 -14 -14 -14 -14 -14 -14 -14 -14 -14 -13 -13 -12 -13 -13 -13 -12 -13 -13 -12 -12 -12 -12 -13 -12 -12 -12 -12 -12 -12 -12 -12 -11 -11 -11 -11 -11 -11 -11 -11 -10 -11 -11 -11
-15 -15 -15 -15 -15 -15 -15 -15 -15 -15 -15 -15 -15 -16 -16 -16 -16 -16 -16 -15 -15 -14 -14 -14 -14 -15 -14 -14 -14 -14 -14 -13 -12 -13 -13 -13 -13 -13 -13 -12 -12 -12 -13 -13 -12 -12 -12 -12 -12 -12 -12 -12 -12 -11 -11 -11 -11 -11 -11 -11 -11 -11 -11
-16 -16 -15 -15 -16 -16 -16 -16 -16 -16 -16 -16 -16 -16 -16 -16 -16 -16 -16 -16 -16 -15 -15 -14 -14 -15 -15 -15 -15 -14 -15 -14 -13 -13 -13 -13 -13 -13 -13 -13 -13 -13 -13 -13 -13 -13 -12 -12 -12 -12 -12 -12 -12 -12 -12 -11 -11 -11 -11 -11 -11 -11 -11
-16 -16 -16 -16 -16 -16 -16 -16 -16 -16 -16 -16 -16 -16 -16 -16 -16 -16 -17 -16 -16 -16 -16 -15 -15 -15 -15 -15 -15 -15 -15 -15 -14 -13 -13 -13 -13 -13 -13 -13 -13 -13 -13 -13 -13 -13 -12 -12 -12 -12 -12 -12 -12 -12 -12 -12 -12 -11 -11 -11 -11 -11 -11
-16 -16 -16 -16 -16 -16 -16 -16 -16 -16 -16 -16 -16 -16 -16 -16 -16 -16 -16 -17 -17 -17 -16 -16 -16 -15 -15 -15 -15 -15 -15 -15 -15 -14 -14 -13 -13 -13 -12 -12 -13 -13 -13 -13 -13 -13 -12 -12 -12 -12 -12 -12 -12 -12 -12 -12 -12 -12 -11 -11 -11 -11 -11
-17 -17 -17 -16 -16 -16 -16 -16 -16 -16 -16 -16 -16 -16 -16 -17 -17 -17 -17 -17 -17 -17 -17 -17 -16 -16 -15 -15 -15 -15 -16 -15 -15 -15 -15 -14 -13 -13 -13 -13 -13 -13 -13 -13 -13 -13 -13 -12 -12 -13 -13 -13 -12 -12 -12 -12 -12 -12 -12 -12 -11 -11 -12
-17 -17 -17 -17 -17 -17 -16 -16 -16 -16 -16 -16 -16 -16 -16 -17 -17 -17 -17 -17 -17 -17 -17 -17 -17 -16 -16 -16 -15 -15 -15 -15 -15 -15 -15 -15 -14 -14 -13 -13 -13 -13 -13 -13 -13 -13 -13 -13 -13 -13 -13 -13 -12 -12 -12 -12 -12 -12 -12 -12 -12 -12 -12
-17 -17 -17 -17 -17 -17 -17 -17 -16 -16 -16 -16 -16 -16 -16 -16 -17 -17 -17 -17 -17 -17 -17 -17 -17 -16 -16 -16 -16 -15 -15 -15 -15 -15 -15 -15 -15 -15 -14 -13 -13 -13 -13 -13 -13 -13 -13 -13 -13 -13 -13 -13 -12 -12 -12 -12 -12 -12 -12 -12 -12 -12 -12
-18 -17 -17 -17 -17 -17 -17 -17 -17 -17 -16 -16 -16 -16 -16 -16 -16 -17 -17 -17 -17 -17 -17 -17 -17 -16 -16 -16 -16 -16 -15 -15 -15 -15 -15 -15 -15 -15 -15 -14 -14 -14 -13 -13 -13 -13 -13 -13 -13 -13 -13 -12 -12 -12 -12 -12 -12 -12 -11 -12 -12 -12 -12
-18 -18 -18 -17 -17 -17 -17 -17 -17 -17 -17 -16 -16 -16 -16 -16 -16 -16 -17 -17 -17 -17 -17 -17 -17 -17 -16 -16 -16 -16 -16 -15 -15 -15 -15 -15 -15 -15 -15 -15 -14 -14 -14 -14 -13 -13 -14 -13 -13 -13 -13 -13 -13 -13 -13 -12 -12 -12 -11 -11 -12 -12 -12
-18 -18 -18 -18 -18 -18 -18 -17 -17 -17 -17 -17 -16 -16 -16 -16 -16 -16 -16 -17 -17 -17 -17 -17 -16 -16 -16 -16 -16 -16 -16 -15 -15 -15 -15 -15 -15 -15 -15 -15 -15 -15 -14 -14 -14 -14 -14 -13 -13 -13 -13 -13 -13 -13 -13 -12 -12 -12 -11 -11 -12 -12 -12
-18 -18 -18 -18 -18 -18 -18 -18 -17 -17 -17 -17 -17 -17 -16 -16 -16 -16 -16 -16 -17 -17 -17 -17 -16 -16 -16 -16 -16 -16 -16 -16 -15 -15 -15 -15 -15 -15 -15 -15 -15 -15 -14 -14 -14 -14 -14 -14 -14 -13 -13 -13 -13 -13 -13 -13 -13 -12 -12 -11 -12 -12 -12
-19 -19 -19 -19 -18 -18 -18 -18 -18 -18 -18 -17 -17 -17 -17 -17 -17 -16 -16 -16 -17 -17 -17 -17 -17 -16 -16 -17 -16 -16 -16 -16 -15 -15 -15 -15 -15 -15 -15 -15 -15 -15 -15 -14 -14 -14 -14 -14 -14 -13 -13 -13 -13 -13 -13 -13 -13 -13 -12 -11 -12 -12 -12
-19 -19 -19 -19 -19 -18 -18 -18 -18 -18 -18 -18 -18 -18 -17 -17 -17 -17 -17 -17 -17 -17 -17 -17 -17 -17 -17 -17 -16 -16 -16 -16 -16 -15 -15 -15 -14 -14 -15 -14 -14 -15 -15 -14 -14 -14 -15 -15 -14 -14 -14 -13 -13 -13 -13 -13 -13 -13 -12 -12 -12 -12 -12
-19 -19 -19 -19 -19 -19 -19 -19 -19 -19 -18 -18 -18 -18 -18 -18 -18 -18 -17 -17 -17 -17 -17 -17 -17 -17 -17 -16 -16 -16 -16 -16 -16 -15 -15 -15 -14 -14 -14 -14 -14 -14 -15 -14 -14 -14 -15 -15 -15 -14 -14 -14 -13 -13 -13 -13 -13 -13 -12 -12 -12 -13 -13
-19 -19 -19 -19 -19 -19 -19 -19 -19 -19 -19 -19 -19 -18 -18 -18 -18 -18 -18 -18 -17 -17 -17 -17 -17 -17 -17 -16 -16 -16 -16 -16 -16 -15 -15 -15 -14 -14 -14 -14 -14 -14 -14 -14 -14 -14 -14 -15 -15 -15 -14 -14 -14 -13 -13 -13 -13 -13 -13 -12 -13 -13 -13
-20 -19 -19 -19 -19 -19 -19 -19 -19 -19 -19 -19 -19 -19 -18 -18 -18 -18 -18 -18 -18 -17 -17 -17 -17 -17 -17 -16 -16 -16 -16 -16 -16 -15 -15 -15 -14 -14 -14 -14 -14 -14 -14 -14 -14 -14 -14 -15 -15 -15 -15 -15 -14 -14 -13 -13 -13 -13 -13 -13 -13 -13 -13
-20 -20 -19 -19 -20 -20 -20 -20 -19 -19 -19 -19 -19 -19 -18 -18 -18 -18 -18 -18 -18 -17 -17 -17 -17 -17 -17 -16 -16 -16 -16 -16 -15 -15 -15 -15 -14 -14 -15 -15 -14 -14 -14 -14 -14 -14 -14 -14 -15 -15 -15 -15 -14 -14 -14 -13 -13 -13 -13 -13 -13 -13 -13
-20 -20 -20 -20 -20 -20 -20 -20 -20 -20 -19 -19 -19 -19 -18 -18 -18 -18 -18 -17 -17 -17 -17 -17 -17 -17 -17 -16 -16 -16 -16 -16 -15 -15 -15 -15 -15 -15 -15 -15 -15 -15 -14 -14 -14 -14 -14 -14 -15 -15 -15 -15 -14 -14 -14 -13 -13 -13 -13 -13 -13 -13 -13
-20 -20 -20 -20 -20 -20 -20 -20 -20 -20 -19 -19 -19 -18 -18 -18 -18 -17 -17 -17 -17 -17 -17 -17 -17 -17 -16 -16 -16 -16 -16 -15 -15 -15 -15 -15 -15 -15 -16 -16 -16 -16 -15 -15 -14 -14 -14 -14 -14 -15 -15 -15 -15 -14 -14 -13 -13 -13 -13 -13 -13 -13 -13
-20 -20 -20 -20 -20 -20 -20 -20 -20 -20 -19 -19 -19 -18 -18 -18 -18 -18 -17 -17 -17 -16 -16 -16 -16 -16 -16 -16 -16 -16 -15 -15 -15 -15 -15 -15 -15 -15 -16 -16 -16 -16 -16 -16 -15 -14 -14 -14 -14 -15 -15 -15 -15 -14 -14 -14 -14 -13 -13 -13 -13 -13 -13
-20 -20 -21 -20 -20 -20 -20 -20 -20 -20 -19 -19 -19 -19 -19 -18 -18 -18 -18 -17 -17 -16 -16 -16 -16 -16 -16 -16 -16 -15 -15 -15 -15 -15 -15 -15 -15 -16 -16 -17 -17 -17 -17 -16 -16 -15 -15 -14 -14 -15 -15 -15 -15 -15 -14 -14 -14 -14 -13 -13 -14 -13 -13
-21 -21 -21 -20 -20 -20 -20 -20 -20 -20 -20 -20 -20 -19 -19 -19 -19 -19 -18 -18 -17 -16 -16 -16 -16 -16 -16 -16 -15 -15 -15 -15 -14 -15 -15 -15 -15 -16 -17 -17 -17 -17 -17 -17 -17 -16 -15 -15 -14 -14 -15 -15 -15 -15 -14 -14 -14 -14 -13 -13 -14 -13 -13
-21 -21 -20 -20 -20 -20 -20 -20 -20 -20 -20 -20 -20 -20 -19 -19 -18 -19 -18 -18 -17 -17 -16 -16 -17 -16 -16 -15 -15 -15 -14 -14 -14 -15 -15 -15 -16 -16 -17 -17 -17 -17 -17 -17 -17 -17 -16 -15 -14 -14 -15 -15 -15 -15 -15 -14 -14 -14 -13 -14 -14 -13 -13
-21 -21 -20 -20 -21 -21 -21 -21 -20 -20 -20 -20 -20 -19 -19 -18 -18 -18 -18 -18 -17 -17 -17 -17 -17 -17 -16 -16 -15 -15 -15 -15 -15 -15 -16 -16 -16 -17 -17 -17 -17 -17 -17 -17 -17 -17 -17 -15 -15 -14 -15 -15 -15 -15 -15 -14 -14 -14 -13 -13 -13 -13 -13
-21 -21 -21 -21 -21 -21 -21 -21 -20 -20 -20 -20 -19 -19 -18 -18 -18 -17 -17 -17 -17 -16 -16 -17 -17 -17 -17 -16 -16 -16 -15 -16 -16 -16 -16 -17 -17 -17 -17 -17 -17 -17 -17 -18 -18 -18 -17 -16 -15 -15 -15 -15 -15 -15 -15 -14 -14 -14 -14 -14 -13 -13 -13
-21 -21 -21 -21 -21 -21 -21 -21 -21 -20 -20 -19 -19 -18 -18 -18 -17 -17 -17 -17 -16 -16 -16 -16 -16 -16 -16 -16 -16 -16 -16 -16 -17 -17 -17 -17 -17 -17 -17 -17 -17 -17 -18 -18 -18 -18 -17 -16 -15 -15 -15 -15 -15 -15 -15 -15 -14 -14 -14 -14 -13 -13 -13
-21 -21 -21 -21 -21 -21 -21 -21 -21 -20 -19 -19 -18 -18 -18 -18 -17 -17 -17 -16 -16 -16 -16 -16 -16 -16 -16 -16 -16 -17 -17 -17 -17 -17 -17 -17 -17 -17 -16 -17 -17 -17 -18 -18 -18 -18 -17 -17 -16 -15 -15 -15 -15 -15 -15 -15 -14 -14 -14 -14 -13 -13 -13
Height
5750 5750 5751 5751 5753 5754 5755 5755 5756 5756 5757 5759 5761 5762 5764 5765 5766 5768 5770 5771 5773 5775 5777 5779 5781 5782 5784 5786 5788 5789 5791 5794 5796 5797 5799 5802 5803 5806 5809 5811 5813 5815 5815 5816 5818 5818 5819 5822 5823 5825 5827 5829 5831 5833 5835 5837 5839 5840 5842 5843 5844 5844 5845
5746 5746 5746 5746 5746 5747 5749 5750 5750 5751 5752 5753 5754 5756 5758 5759 5760 5762 5763 5765 5767 5769 5771 5773 5775 5777 5778 5780 5782 5784 5785 5788 5790 5791 5793 5796 5798 5800 5802 5804 5807 5809 5810 5812 5813 5814 5816 5818 5819 5820 5822 5824 5826 5828 5830 5832 5834 5836 5838 5839 5840 5841 5842
5740 5740 5741 5741 5741 5741 5742 5743 5744 5745 5746 5747 5748 5750 5752 5753 5754 5755 5757 5758 5760 5762 5764 5766 5769 5771 5772 5774 5776 5778 5779 5781 5783 5785 5787 5790 5792 5794 5795 5797 5800 5803 5805 5807 5809 5812 5813 5814 5815 5816 5818 5820 5822 5824 5825 5827 5829 5831 5833 5835 5836 5837 5838
5735 5735 5735 5735 5736 5736 5736 5736 5737 5739 5740 5741 5742 5743 5745 5747 5748 5750 5751 5752 5753 5755 5756 5759 5762 5764 5767 5768 5770 5771 5773 5775 5777 5780 5782 5784 5786 5788 5789 5791 5794 5797 5799 5802 5805 5806 5807 5809 5811 5812 5814 5816 5817 5819 5821 5823 5825 5827 5829 5831 5832 5833 5834
5729 5729 5729 5729 5730 5731 5731 5731 5731 5732 5733 5735 5736 5737 5738 5739 5742 5743 5744 5745 5747 5748 5749 5751 5754 5757 5760 5762 5763 5765 5767 5769 5772 5774 5776 5778 5780 5781 5784 5786 5788 5792 5793 5795 5798 5799 5801 5804 5806 5806 5809 5812 5813 5815 5817 5819 5821 5823 5825 5826 5827 5828 5830
5724 5724 5723 5723 5723 5724 5725 5725 5725 5726 5726 5728 5729 5731 5732 5733 5734 5736 5738 5739 5740 5742 5743 5744 5746 5749 5752 5755 5756 5759 5761 5763 5766 5768 5770 5772 5773 5775 5778 5781 5783 5786 5788 5788 5790 5792 5795 5798 5800 5802 5805 5807 5808 5811 5813 5816 5817 5819 5820 5822 5823 5824 5826
5719 5718 5718 5717 5717 5717 5718 5719 5719 5720 5720 5721 5722 5723 5725 5726 5727 5729 5731 5733 5734 5735 5737 5738 5740 5741 5744 5747 5749 5752 5754 5757 5759 5762 5764 5765 5767 5770 5773 5776 5779 5781 5783 5783 5784 5786 5789 5792 5795 5797 5800 5801 5804 5806 5809 5811 5813 5814 5816 5818 5819 5820 5822
5713 5713 5712 5712 5712 5712 5712 5713 5713 5714 5714 5715 5716 5717 5718 5719 5721 5722 5724 5726 5727 5729 5730 5732 5733 5735 5736 5739 5742 5744 5747 5750 5752 5756 5758 5760 5762 5764 5767 5770 5773 5775 5778 5780 5779 5781 5785 5786 5788 5792 5794 5795 5798 5802 5804 5806 5808 5810 5812 5814 5814 5816 5818
5709 5708 5707 5707 5707 5706 5706 5707 5707 5707 5708 5709 5710 5710 5711 5712 5714 5715 5717 5718 5720 5722 5724 5725 5727 5729 5730 5731 5734 5737 5740 5742 5745 5749 5751 5754 5756 5758 5760 5763 5766 5769 5773 5775 5775 5776 5779 5781 5782 5786 5788 5790 5793 5797 5799 5801 5803 5805 5807 5809 5810 5812 5813
5704 5703 5702 5702 5701 5701 5701 5701 5701 5701 5702 5702 5703 5704 5705 5706 5707 5708 5710 5711 5713 5715 5717 5719 5720 5722 5723 5725 5727 5730 5732 5735 5738 5741 5744 5747 5750 5752 5754 5757 5760 5763 5766 5768 5770 5771 5772 5774 5777 5781 5783 5785 5788 5791 5794 5796 5799 5801 5802 5804 5806 5807 5808
5698 5697 5697 5696 5696 5696 5696 5695 5695 5695 5696 5696 5697 5697 5698 5699 5700 5702 5703 5704 5705 5707 5709 5711 5713 5715 5717 5718 5720 5723 5725 5727 5730 5733 5737 5740 5743 5746 5749 5751 5753 5756 5759 5761 5764 5766 5767 5769 5772 5776 5779 5781 5782 5786 5789 5791 5794 5796 5797 5800 5802 5802 5804
5692 5692 5691 5691 5691 5690 5690 5690 5690 5690 5690 5690 5690 5691 5692 5693 5694 5695 5696 5698 5699 5700 5701 5703 5706 5708 5710 5712 5714 5716 5718 5720 5722 5725 5728 5731 5735 5738 5741 5745 5747 5750 5753 5755 5757 5759 5762 5764 5767 5770 5774 5775 5776 5780 5783 5785 5789 5790 5792 5796 5797 5798 5799
5686 5686 5685 5685 5685 5685 5684 5684 5684 5685 5685 5684 5684 5685 5685 5686 5686 5688 5689 5691 5692 5693 5694 5696 5698 5700 5703 5705 5707 5709 5711 5713 5715 5718 5720 5723 5726 5729 5733 5737 5741 5743 5746 5749 5750 5752 5755 5758 5761 5764 5768 5769 5770 5773 5777 5780 5783 5784 5787 5791 5791 5793 5795
5680 5679 5679 5679 5679 5679 5678 5678 5678 5679 5679 5679 5678 5678 5679 5679 5679 5680 5682 5684 5685 5687 5688 5689 5690 5692 5694 5697 5700 5702 5704 5705 5708 5710 5712 5715 5718 5721 5725 5729 5732 5736 5739 5742 5744 5746 5748 5751 5755 5758 5762 5764 5765 5767 5770 5774 5777 5779 5782 5784 5785 5789 5791
5673 5673 5672 5672 5672 5672 5672 5672 5672 5672 5672 5673 5672 5672 5672 5672 5672 5673 5674 5676 5678 5679 5681 5683 5684 5685 5687 5689 5692 5694 5697 5698 5700 5702 5704 5708 5711 5713 5716 5720 5724 5728 5732 5735 5738 5741 5742 5745 5749 5752 5756 5758 5760 5762 5764 5768 5771 5773 5775 5777 5781 5785 5785
5666 5666 5665 5665 5666 5666 5665 5665 5665 5665 5665 5666 5666 5665 5665 5665 5665 5665 5666 5667 5669 5671 5673 5675 5677 5678 5680 5681 5683 5686 5688 5691 5693 5694 5697 5700 5703 5705 5708 5712 5716 5719 5723 5727 5731 5734 5737 5741 5744 5747 5750 5752 5753 5756 5758 5760 5764 5767 5768 5772 5777 5779 5778
5659 5659 5659 5659 5659 5659 5658 5658 5657 5658 5658 5658 5658 5658 5658 5657 5657 5658 5659 5659 5661 5663 5665 5666 5668 5671 5672 5674 5676 5677 5680 5682 5685 5687 5689 5692 5695 5698 5700 5703 5708 5711 5713 5718 5723 5726 5731 5735 5739 5741 5744 5746 5747 5750 5752 5754 5758 5760 5760 5765 5770 5771 5772
5652 5652 5652 5652 5652 5652 5651 5650 5650 5650 5650 5650 5650 5650 5650 5650 5650 5650 5651 5651 5652 5654 5656 5658 5660 5662 5664 5666 5668 5670 5672 5674 5676 5679 5681 5684 5687 5691 5694 5696 5700 5702 5705 5710 5714 5719 5724 5729 5732 5734 5737 5741 5743 5744 5747 5749 5752 5753 5754 5759 5763 5765 5766
5646 5645 5645 5645 5645 5644 5643 5643 5642 5642 5642 5643 5643 5643 5643 5642 5642 5642 5643 5644 5645 5646 5647 5649 5651 5653 5656 5658 5660 5662 5664 5665 5668 5670 5673 5676 5679 5683 5687 5690 5692 5694 5697 5702 5707 5712 5716 5721 5725 5727 5731 5735 5737 5739 5742 5744 5747 5748 5749 5753 5757 5759 5761
5639 5639 5638 5638 5637 5637 5636 5635 5635 5634 5634 5635 5635 5635 5635 5635 5635 5635 5635 5635 5636 5637 5639 5640 5642 5644 5647 5649 5651 5654 5656 5657 5659 5661 5664 5668 5671 5674 5678 5682 5685 5687 5690 5695 5701 5705 5708 5713 5718 5720 5725 5729 5732 5734 5737 5739 5742 5742 5743 5747 5751 5753 5755
5633 5632 5631 5631 5630 5629 5628 5628 5627 5627 5626 5627 5627 5627 5627 5627 5627 5627 5627 5627 5628 5629 5630 5632 5634 5635 5638 5640 5642 5644 5647 5649 5651 5653 5656 5659 5662 5665 5669 5674 5677 5681 5684 5688 5693 5697 5700 5705 5710 5713 5718 5723 5726 5728 5731 5734 5737 5736 5737 5743 5746 5748 5750
5626 5625 5624 5623 5622 5621 5621 5620 5620 5619 5618 5618 5618 5619 5619 5619 5619 5619 5619 5619 5620 5621 5622 5624 5626 5627 5629 5631 5632 5635 5638 5640 5643 5645 5647 5650 5653 5657 5660 5664 5669 5673 5677 5681 5685 5689 5693 5697 5701 5706 5711 5717 5720 5722 5724 5729 5732 5731 5732 5737 5741 5742 5746
5619 5618 5617 5616 5615 5614 5613 5613 5612 5611 5610 5610 5609 5610 5610 5610 5611 5611 5611 5612 5612 5613 5614 5616 5618 5619 5620 5621 5623 5626 5629 5631 5634 5637 5639 5642 5645 5648 5651 5655 5660 5665 5670 5674 5677 5681 5685 5689 5692 5698 5704 5709 5714 5716 5718 5723 5726 5725 5727 5732 5735 5738 5741
5612 5611 5610 5609 5608 5607 5606 5604 5604 5603 5602 5601 5601 5600 5601 5601 5601 5602 5603 5603 5604 5604 5606 5607 5609 5609 5611 5613 5615 5617 5620 5623 5626 5629 5632 5634 5637 5640 5643 5646 5651 5656 5661 5665 5669 5673 5677 5681 5685 5691 5696 5701 5706 5709 5712 5716 5718 5720 5723 5728 5731 5733 5736
5605 5604 5603 5602 5601 5599 5598 5597 5596 5595 5594 5593 5592 5592 5591 5592 5592 5593 5593 5594 5595 5595 5597 5598 5599 5600 5602 5603 5606 5608 5611 5614 5618 5621 5624 5627 5629 5632 5634 5637 5642 5647 5652 5657 5662 5666 5670 5674 5679 5683 5688 5694 5699 5702 5706 5709 5711 5714 5717 5722 5726 5728 5731
5598 5597 5596 5595 5593 5592 5590 5589 5588 5586 5585 5584 5583 5583 5582 5582 5583 5583 5583 5584 5585 5586 5587 5588 5590 5591 5592 5594 5596 5599 5602 5605 5609 5613 5616 5619 5621 5623 5626 5629 5633 5638 5643 5649 5654 5658 5662 5666 5671 5675 5680 5686 5691 5694 5698 5702 5705 5708 5711 5716 5720 5723 5725
5592 5590 5589 5587 5586 5584 5583 5581 5580 5578 5577 5576 5575 5574 5574 5573 5573 5573 5573 5573 5574 5575 5577 5578 5580 5581 5582 5584 5587 5590 5593 5597 5600 5604 5608 5611 5613 5616 5619 5621 5625 5629 5634 5640 5646 5651 5655 5659 5663 5668 5672 5677 5683 5687 5691 5695 5699 5703 5706 5709 5714 5717 5719
5585 5583 5582 5580 5579 5577 5575 5574 5572 5570 5569 5568 5566 5565 5564 5563 5563 5562 5562 5562 5562 5564 5566 5568 5569 5571 5573 5575 5577 5580 5584 5588 5592 5596 5600 5603 5606 5609 5612 5614 5617 5621 5625 5630 5637 5643 5647 5651 5655 5660 5664 5669 5675 5680 5684 5688 5693 5696 5700 5704 5709 5711 5714
5578 5577 5575 5574 5572 5570 5568 5566 5564 5562 5561 5559 5557 5556 5554 5553 5553 5552 5551 5551 5551 5554 5556 5558 5559 5561 5563 5565 5568 5571 5575 5580 5584 5588 5592 5596 5598 5601 5604 5607 5610 5614 5617 5622 5628 5633 5638 5643 5647 5652 5656 5661 5667 5671 5676 5682 5687 5690 5695 5700 5703 5706 5708
5572 5571 5569 5567 5565 5563 5561 5559 5556 5554 5552 5550 5548 5546 5545 5544 5543 5542 5541 5540 5541 5543 5546 5548 5549 5552 5554 5556 5559 5563 5567 5571 5575 5580 5584 5588 5591 5594 5597 5601 5604 5607 5610 5614 5619 5624 5630 5635 5639 5644 5648 5653 5659 5664 5670 5676 5680 5684 5689 5694 5697 5700 5703
5566 5565 5563 5561 5559 5556 5554 5551 5549 5546 5544 5542 5539 5537 5535 5534 5534 5533 5531 5531 5532 5534 5537 5539 5540 5543 5545 5546 5549 5554 5558 5562 5567 5571 5575 5580 5583 5587 5591 5594 5597 5601 5604 5607 5611 5616 5621 5626 5631 5636 5641 5647 5653 5658 5665 5670 5675 5679 5684 5688 5691 5695 5699
5561 5559 5557 5555 5552 5550 5547 5544 5542 5539 5536 5533 5531 5530 5528 5526 5526 5525 5523 5523 5523 5525 5528 5530 5532 5533 5535 5537 5541 5546 5549 5554 5559 5563 5567 5571 5576 5580 5584 5587 5591 5595 5598 5601 5605 5609 5613 5618 5624 5630 5636 5641 5647 5653 5660 5666 5670 5674 5678 5683 5687 5690 5693
5556 5553 5551 5549 5546 5543 5540 5538 5535 5532 5530 5527 5525 5523 5521 5519 5519 5518 5516 5516 5516 5518 5520 5522 5524 5525 5527 5530 5534 5538 5541 5545 5551 5555 5558 5563 5568 5573 5577 5581 5585 5588 5591 5595 5600 5603 5606 5611 5617 5624 5630 5636 5642 5649 5655 5660 5665 5669 5674 5678 5681 5684 5687
5550 5548 5545 5543 5540 5537 5534 5532 5529 5526 5524 5521 5519 5517 5515 5513 5512 5511 5510 5510 5510 5511 5513 5515 5517 5519 5521 5524 5527 5530 5534 5538 5542 5546 5550 5555 5561 5565 5570 5574 5578 5582 5586 5590 5595 5597 5600 5604 5611 5617 5623 5630 5637 5643 5649 5654 5659 5664 5668 5672 5675 5677 5680
5544 5542 5539 5536 5534 5531 5529 5526 5523 5520 5518 5516 5514 5511 5509 5507 5505 5504 5504 5504 5504 5506 5507 5510 5512 5513 5516 5518 5521 5525 5528 5531 5535 5538 5543 5548 5553 5558 5563 5568 5573 5578 5582 5586 5589 5591 5594 5598 5603 5610 5617 5624 5630 5636 5642 5648 5653 5657 5662 5666 5668 5671 5675
5538 5536 5533 5531 5529 5526 5523 5520 5517 5514 5512 5510 5508 5505 5503 5501 5499 5498 5497 5498 5499 5500 5501 5504 5506 5508 5510 5513 5516 5520 5523 5526 5529 5532 5537 5542 5547 5552 5558 5563 5568 5573 5576 5579 5582 5585 5588 5592 5597 5604 5610 5617 5624 5630 5636 5641 5646 5651 5656 5659 5662 5666 5670
5533 5531 5528 5526 5524 5521 5519 5516 5513 5509 5506 5504 5502 5499 5497 5495 5494 5493 5492 5492 5493 5493 5495 5497 5499 5502 5505 5508 5511 5515 5518 5521 5524 5528 5532 5537 5542 5547 5553 5558 5563 5566 5569 5572 5576 5579 5583 5587 5592 5598 5604 5611 5618 5625 5630 5635 5640 5646 5650 5653 5657 5661 5667
Wind_Speed
35 36 36 36 36 36 37 38 39 41 42 42 41 42 43 44 44 46 48 51 52 53 53 53 52 52 51 50 50 49 50 53 51 53 58 57 53 53 53 54 54 53 52 51 48 48 47 46 47 48 49 48 48 47 46 44 43 43 43 42 42 42 41
36 36 36 37 38 38 37 38 39 41 42 43 44 43 44 45 45 46 48 50 52 54 55 55 54 54 54 52 51 51 51 52 50 49 56 60 55 51 52 53 54 56 56 54 52 50 48 47 47 47 47 48 49 48 47 46 45 44 44 43 42 42 41
37 37 38 38 39 39 40 40 40 41 42 43 44 45 45 46 47 47 48 49 51 53 55 56 57 56 56 55 53 52 52 52 49 46 50 59 59 53 51 53 54 55 57 57 55 53 51 50 49 48 46 46 47 48 48 48 47 46 45 44 43 43 41
39 40 40 40 39 40 41 42 42 42 43 43 44 46 46 47 48 48 49 49 50 52 54 56 57 58 58 58 56 55 54 52 51 47 45 53 59 56 51 52 53 54 56 59 57 56 55 54 52 50 48 46 46 47 48 48 48 48 47 46 45 44 43
41 41 42 42 41 41 42 43 43 44 44 44 45 46 47 47 48 49 50 50 50 51 53 55 56 58 59 60 59 58 56 54 53 51 46 47 56 60 54 49 50 52 53 58 61 60 58 56 55 54 51 49 48 47 46 47 48 48 48 47 47 46 45
42 42 43 44 44 43 43 44 45 45 45 46 46 46 47 47 48 48 49 51 51 51 52 53 55 57 58 60 61 61 60 57 55 54 51 48 50 57 58 51 51 52 50 52 58 61 61 59 58 57 55 52 51 48 46 45 46 47 47 48 48 47 46
43 43 44 44 45 45 45 45 46 46 47 47 47 47 47 48 48 48 48 49 51 51 52 52 53 55 56 59 61 63 62 61 58 56 55 51 47 49 53 51 51 54 53 52 53 57 61 61 60 59 57 56 54 51 48 45 44 45 45 45 46 47 45
43 43 44 44 45 45 46 46 47 47 47 48 48 48 48 48 48 48 49 49 50 50 51 52 53 53 54 56 59 62 64 64 62 60 58 56 52 50 50 51 51 52 53 54 54 55 57 61 62 61 59 59 58 54 52 49 46 44 43 43 44 45 44
43 44 44 44 44 45 46 46 47 48 48 48 48 48 48 48 48 48 49 49 50 50 51 51 52 53 54 54 56 59 63 65 65 64 62 60 59 56 55 55 56 53 51 53 55 55 55 58 62 63 62 61 60 57 54 53 50 47 45 43 42 43 43
43 44 44 44 43 44 45 45 46 47 48 48 48 48 48 48 48 49 49 50 50 51 51 51 52 53 54 54 54 56 59 64 66 66 66 64 62 62 60 60 59 56 54 54 54 54 54 56 59 62 64 63 62 59 57 55 52 49 47 45 42 42 43
42 43 43 43 43 42 43 44 44 45 46 47 47 47 48 48 48 49 49 50 50 51 52 52 52 52 53 54 54 54 56 60 64 66 68 68 67 65 64 63 62 60 58 58 57 53 51 53 56 58 59 62 63 61 59 58 53 51 50 47 44 43 43
43 43 43 43 43 42 42 42 43 43 43 44 45 46 47 47 48 49 49 49 50 51 51 52 53 53 53 53 54 54 54 56 60 64 67 69 70 69 67 65 64 63 60 60 60 58 53 51 52 54 53 56 62 62 60 59 56 55 53 48 46 45 44
44 44 44 43 43 43 43 42 42 42 43 43 44 45 45 47 48 48 49 49 49 50 51 52 53 53 54 53 53 54 55 55 57 60 64 67 69 70 70 68 66 64 63 61 61 62 60 54 51 52 50 50 57 62 61 60 58 58 56 52 50 48 46
45 45 45 45 44 44 44 43 43 43 43 44 45 45 46 47 48 49 49 50 50 50 51 51 52 54 54 54 53 53 54 55 56 58 61 64 66 69 70 70 70 68 65 64 63 61 62 60 54 52 51 50 54 59 62 61 59 59 57 56 56 52 48
45 45 46 46 45 45 45 45 44 44 44 44 46 47 48 49 49 50 51 51 51 52 52 52 52 53 54 54 55 54 54 55 57 57 59 60 63 66 67 69 71 71 68 65 64 62 62 63 59 55 53 52 53 55 58 61 61 60 59 58 56 52 52
46 46 47 47 46 46 46 46 46 45 45 45 46 48 50 51 51 52 53 53 53 53 53 54 54 54 54 54 55 55 55 55 56 58 59 59 60 62 65 66 68 70 71 68 67 65 63 62 59 56 54 54 55 54 54 57 60 61 63 62 58 55 57
48 48 48 48 47 47 47 47 47 47 47 47 47 48 50 52 53 54 55 55 56 56 56 56 56 55 55 55 55 55 56 55 56 57 59 59 59 60 62 64 65 67 69 70 69 67 65 62 60 59 57 57 58 57 54 53 54 58 63 63 61 61 60
50 50 49 49 48 48 48 48 48 48 48 48 49 49 50 52 54 55 56 57 57 57 57 57 57 57 57 56 56 56 56 57 56 57 59 60 60 60 60 61 62 64 66 68 70 69 67 64 62 62 61 60 60 60 57 54 52 56 61 61 60 62 62
50 50 50 49 48 48 48 49 49 49 49 49 49 50 50 51 53 55 57 58 59 59 58 58 58 58 58 58 57 57 57 58 58 58 59 59 61 61 60 60 61 62 63 65 68 69 69 67 66 65 64 61 61 61 60 57 55 57 59 57 57 59 61
48 49 49 48 48 48 49 50 50 50 51 51 51 51 51 52 53 54 56 58 60 60 60 59 59 59 59 59 58 58 58 58 59 59 59 59 61 62 62 61 61 61 62 62 64 67 69 69 67 67 66 63 61 60 59 57 55 56 58 56 55 57 57
48 48 48 48 48 48 49 50 51 51 51 51 51 52 52 52 53 54 55 57 60 61 61 60 60 60 59 59 59 59 59 59 59 60 59 59 61 62 62 63 62 61 60 60 61 64 67 69 68 67 67 65 62 60 60 58 55 57 58 56 56 57 55
48 48 48 48 49 49 50 51 51 52 52 52 52 52 52 53 53 54 55 57 59 61 62 62 61 61 61 60 60 60 59 60 59 59 60 59 60 62 63 64 64 63 61 60 60 61 64 67 68 67 65 64 63 61 62 60 58 59 58 54 55 57 54
48 48 49 49 50 50 51 52 52 53 53 53 53 53 54 54 54 54 55 56 58 60 62 63 62 63 62 62 61 61 60 60 59 59 59 59 60 61 62 64 64 64 63 62 60 60 62 65 68 68 65 64 64 63 63 61 60 61 59 52 52 54 51
49 49 50 50 50 51 52 52 52 52 52 53 54 54 54 55 55 56 56 56 58 59 62 63 63 63 63 63 62 61 61 60 59 58 58 58 59 60 62 64 64 65 66 64 62 61 61 63 65 67 67 65 65 65 64 62 61 63 59 51 48 49 49
49 50 51 51 51 51 52 52 52 52 52 52 53 54 55 55 55 56 57 57 58 59 61 62 63 63 64 64 63 62 61 60 59 57 56 56 58 59 62 64 64 65 66 66 64 62 62 62 63 66 67 66 65 66 65 62 61 63 61 53 47 48 48
49 50 50 51 52 52 52 52 52 52 52 53 53 54 55 55 56 56 57 58 58 59 60 61 62 63 63 64 63 62 61 60 59 57 55 55 55 57 60 63 64 65 66 67 66 64 63 63 63 64 66 65 65 65 64 62 62 63 61 54 50 51 50
48 48 49 49 50 51 51 51 52 52 53 53 53 54 54 55 55 56 57 58 58 59 59 60 61 62 63 64 64 63 61 60 59 57 55 54 54 54 57 60 62 64 66 67 67 66 65 64 63 64 65 65 65 64 63 61 61 61 59 56 53 54 53
46 47 47 47 47 48 48 49 50 52 53 53 54 54 54 54 55 55 56 57 57 58 58 59 60 61 62 63 64 63 61 60 59 57 54 53 53 53 54 57 58 61 64 65 66 67 67 66 65 65 65 65 66 66 65 63 61 60 60 57 56 56 55
45 46 46 46 46 47 48 49 51 52 53 53 54 54 54 54 54 54 55 56 56 55 55 56 58 60 61 63 64 63 61 60 59 57 54 53 53 53 53 54 54 56 59 62 65 67 68 68 67 66 66 66 68 69 68 65 62 62 61 59 58 59 57
45 45 45 45 46 48 49 50 51 52 52 52 53 54 54 53 52 52 52 53 53 52 52 53 56 57 59 61 62 62 61 60 59 58 56 54 53 53 53 52 51 52 55 57 60 64 67 69 69 68 67 68 70 70 69 66 64 62 61 61 61 60 57
44 44 44 45 47 48 49 49 49 50 50 51 51 51 50 49 47 46 47 48 48 48 49 50 52 54 56 59 61 60 60 59 59 58 56 54 53 52 52 50 49 50 51 52 56 61 66 68 70 69 68 68 69 70 69 67 65 64 62 61 61 60 58
42 42 44 45 46 46 46 46 46 46 47 47 46 45 45 43 41 40 41 42 43 44 45 46 47 49 52 55 57 57 57 57 57 56 55 53 51 51 51 49 48 48 48 49 52 57 63 68 70 69 68 67 68 69 67 66 66 65 62 60 59 60 62
41 42 44 43 43 43 43 42 42 42 43 44 44 44 44 42 39 38 39 39 38 39 40 41 42 44 47 50 52 53 54 54 53 53 52 51 50 51 50 49 48 47 48 48 48 52 59 67 69 69 69 67 67 67 66 65 66 65 62 60 60 60 64
41 42 42 40 39 39 39 39 40 41 43 44 44 45 44 42 40 38 38 37 36 35 36 36 38 40 43 45 46 47 48 49 48 48 48 48 49 50 49 49 48 48 47 46 46 49 56 65 69 69 69 67 65 65 65 65 65 64 62 61 60 59 61
41 40 39 38 37 36 38 39 41 42 43 42 42 43 42 40 39 38 37 37 35 34 33 34 35 37 39 39 39 38 39 40 41 43 45 47 49 49 48 47 45 44 43 45 46 48 54 62 69 70 70 68 65 65 65 64 65 64 63 61 59 58 60
39 38 36 35 34 35 37 40 41 43 43 41 39 38 36 35 35 35 36 37 36 35 35 35 37 38 38 37 36 34 33 34 37 40 44 47 48 47 45 43 41 41 43 46 48 49 52 60 68 70 70 69 66 64 66 66 65 64 63 61 58 58 57
36 35 34 33 33 35 37 38 40 42 42 38 35 33 31 29 30 31 33 36 38 38 38 38 40 41 41 40 38 36 35 35 36 40 44 46 46 45 43 41 41 44 47 49 50 50 51 58 66 70 70 69 66 65 66 67 66 64 63 61 57 56 53
Wind_Direction
271 272 271 269 266 262 259 258 257 256 255 253 249 246 245 245 243 242 241 239 238 238 237 236 236 237 238 238 240 241 238 234 234 233 229 229 232 234 234 235 236 237 239 239 238 238 237 237 238 239 238 239 239 240 240 240 239 240 241 243 245 246 247
270 270 271 271 270 267 263 259 257 256 255 255 253 250 247 246 245 244 243 242 240 239 239 238 237 237 238 239 239 241 242 241 241 238 230 227 229 231 232 234 235 236 239 240 240 240 239 239 239 239 239 240 240 239 240 240 240 240 241 242 243 245 246
271 270 269 268 269 268 267 264 260 257 256 255 254 253 250 248 246 245 244 244 243 241 240 239 238 238 238 240 240 241 243 243 244 242 232 226 227 229 231 232 234 237 238 240 241 242 242 241 240 240 240 241 241 240 240 241 241 240 241 243 243 244 244
274 272 271 268 267 266 266 265 263 260 258 256 254 253 252 250 248 247 246 244 244 243 242 240 239 239 238 240 241 240 242 243 241 240 236 230 228 227 229 231 232 236 240 240 241 241 242 242 241 241 240 240 241 241 241 241 242 242 242 243 244 244 244
274 273 272 271 268 266 265 264 263 262 260 257 255 254 253 252 250 248 247 246 245 244 243 242 241 239 238 239 240 240 240 242 240 238 238 236 232 227 227 231 230 232 238 240 239 239 241 241 241 241 240 240 241 241 242 242 242 243 243 244 245 245 245
274 272 272 271 270 268 265 264 263 262 261 259 257 255 253 252 251 249 248 247 246 245 244 243 242 241 239 238 239 240 240 240 240 238 237 239 236 228 227 231 230 230 236 240 238 237 238 239 240 241 241 240 241 241 242 243 244 244 244 245 246 247 247
272 271 270 270 269 268 266 265 264 263 262 261 259 257 255 253 252 250 249 248 247 246 245 244 243 243 241 238 238 238 239 240 239 238 238 238 235 229 228 232 232 233 238 242 241 237 236 237 238 239 240 240 241 241 241 242 244 245 246 246 247 248 249
269 269 269 268 268 267 266 265 264 263 262 262 261 259 258 255 253 251 250 249 248 248 247 246 244 244 243 241 238 237 238 240 239 238 237 236 235 232 232 234 236 237 238 241 244 242 238 237 237 236 239 240 240 241 242 241 242 244 245 245 247 248 249
267 267 267 267 267 266 266 265 264 263 262 261 261 260 259 258 256 254 252 250 249 248 248 248 246 245 245 244 241 239 237 238 239 238 237 236 235 236 236 235 236 238 239 240 243 244 241 237 237 236 237 239 240 240 241 242 241 242 243 243 245 247 247
266 265 265 266 266 265 265 264 263 263 262 261 260 259 259 258 257 257 255 254 252 250 249 249 248 247 247 246 244 242 239 238 238 238 238 237 236 235 236 236 236 237 239 241 242 242 240 238 236 235 236 238 240 240 241 242 242 242 243 243 244 246 247
266 265 265 265 265 265 265 264 263 262 262 262 261 260 259 258 258 257 257 256 255 253 251 249 249 249 248 247 246 244 242 240 238 237 238 238 238 236 235 236 237 236 238 240 241 240 237 235 234 233 235 237 239 240 241 242 242 243 243 243 243 246 248
267 266 265 266 266 266 265 264 264 263 262 262 261 261 260 259 258 257 257 257 256 256 254 252 250 249 248 248 248 247 245 242 240 239 238 238 238 238 237 236 237 237 238 239 241 241 239 236 233 230 232 237 238 239 240 241 242 243 243 243 244 246 248
268 267 266 266 266 266 266 265 264 263 263 262 262 261 260 260 259 258 257 256 256 255 255 254 252 250 249 248 247 247 246 245 242 240 239 238 237 237 237 237 236 237 238 238 240 242 241 239 235 230 230 235 238 237 238 240 241 242 243 243 244 246 248
269 268 267 266 266 265 265 265 265 263 262 262 261 261 261 260 260 259 258 257 256 255 255 254 254 252 250 249 247 247 246 246 245 242 240 239 238 237 236 237 237 236 237 238 238 240 242 240 237 232 231 236 239 238 237 238 240 241 242 243 244 245 248
271 269 268 267 266 266 265 265 264 264 263 261 260 260 260 259 260 259 259 258 257 256 256 254 253 253 252 250 248 247 246 245 245 244 242 240 238 238 236 236 236 236 236 237 237 238 240 241 239 236 236 240 243 241 239 238 239 241 243 243 245 246 247
273 271 270 269 268 267 266 265 264 264 264 263 261 259 258 258 258 258 259 259 258 257 256 255 254 253 252 251 250 248 246 245 245 245 244 242 240 239 238 236 235 236 236 236 237 237 237 239 240 238 236 238 242 243 241 238 238 241 243 243 244 245 246
274 272 271 270 269 268 267 266 265 264 264 263 262 260 259 257 257 256 257 257 258 257 256 256 255 254 253 252 250 249 248 246 245 245 244 244 242 239 238 237 235 236 236 236 236 236 236 236 237 236 234 234 238 243 244 242 239 241 243 243 242 244 245
274 273 272 271 270 269 268 267 267 266 264 264 263 262 260 258 257 256 255 255 256 257 256 255 255 255 254 252 251 250 250 248 246 245 245 244 243 241 239 238 236 236 235 235 235 235 235 235 235 235 234 233 236 240 244 246 244 244 244 242 241 242 245
273 273 272 272 271 270 269 268 267 266 265 264 264 263 261 260 258 256 255 255 255 255 256 255 254 254 254 253 251 250 250 250 248 246 245 244 244 242 240 238 236 236 235 234 234 234 235 234 235 235 234 234 237 239 243 246 247 247 246 244 242 242 243
274 273 273 272 272 271 269 268 267 267 266 266 265 264 263 261 260 258 256 255 254 254 255 254 254 253 253 252 251 251 250 250 249 248 246 245 244 243 240 238 237 235 234 233 232 233 234 233 233 234 234 234 237 239 241 244 245 246 247 247 245 242 242
275 275 274 273 272 271 270 269 268 268 268 267 266 265 264 263 261 260 258 256 254 253 253 253 253 253 252 252 251 251 250 250 249 249 247 245 244 243 241 239 237 235 234 233 232 233 234 233 233 233 233 233 235 238 239 241 245 247 247 248 246 242 240
277 276 275 274 273 272 271 270 270 270 270 269 268 267 266 264 262 261 259 257 255 254 252 252 252 252 252 252 251 251 250 249 249 249 248 245 244 243 241 239 237 235 233 232 231 231 233 233 233 232 232 231 233 236 238 238 242 246 246 246 244 240 241
278 277 276 275 274 273 272 272 272 272 271 271 270 268 267 266 264 262 260 259 256 255 253 251 251 252 252 252 251 250 250 249 248 248 248 246 244 243 241 239 237 235 233 231 230 230 231 233 233 232 232 231 230 234 237 237 238 241 242 241 239 239 241
278 277 276 275 275 274 274 273 273 273 272 271 270 269 267 266 265 264 262 260 258 255 253 252 251 251 251 251 251 250 249 249 248 247 246 246 244 243 241 240 237 235 233 231 230 229 230 231 232 232 231 230 229 231 234 235 236 238 238 237 237 240 242
277 277 276 276 275 275 275 274 274 274 274 273 272 270 269 268 266 265 263 262 260 257 254 252 251 251 250 249 249 249 249 248 247 246 245 244 243 242 241 240 237 235 234 232 230 229 229 230 231 231 230 229 228 229 230 233 236 237 236 236 239 242 243
277 276 276 276 276 275 275 275 275 275 275 275 274 273 272 270 268 266 264 262 260 258 255 253 252 250 249 248 247 247 247 247 246 245 244 243 242 241 240 239 238 236 234 232 230 229 229 229 229 230 229 227 227 228 229 232 234 233 233 236 238 240 242
277 277 277 277 277 276 276 276 276 277 277 277 276 275 274 272 270 268 265 263 261 259 257 253 251 249 248 247 246 245 245 245 245 244 243 243 241 240 239 238 237 236 234 232 230 229 229 229 229 229 228 225 224 226 228 231 232 229 230 235 237 240 243
278 278 279 279 280 280 279 279 279 279 279 279 278 277 275 273 271 268 266 264 261 259 257 253 250 248 246 245 245 244 244 243 243 243 243 242 241 238 237 237 236 236 235 232 230 229 229 229 228 228 227 224 222 223 224 227 229 228 230 234 237 239 242
281 281 282 283 283 283 283 283 283 282 282 281 280 278 276 273 271 269 266 264 261 258 255 252 249 247 245 245 244 243 243 242 242 243 242 241 240 236 234 234 234 235 235 233 229 227 227 228 227 227 227 223 220 220 222 224 226 227 228 232 235 238 241
283 284 285 285 285 285 285 285 285 284 283 281 280 278 276 274 272 270 266 263 259 255 252 250 248 246 245 245 244 243 243 242 242 242 242 241 238 234 230 230 231 233 235 233 230 227 225 226 226 226 226 224 221 220 220 222 224 226 226 229 232 236 238
286 286 286 286 287 287 287 286 285 284 282 281 279 277 276 274 272 269 264 260 256 253 249 247 246 245 244 244 243 243 242 241 241 242 242 241 236 230 227 226 227 230 233 232 231 228 224 224 225 225 225 224 221 220 220 221 223 226 227 228 231 233 235
287 287 288 288 289 288 287 285 284 282 281 279 278 277 276 275 271 266 261 256 252 249 246 244 243 242 242 243 243 243 242 242 242 241 241 239 233 226 223 223 223 227 230 231 231 229 225 222 223 223 224 223 222 220 220 221 223 226 228 230 232 233 235
288 289 290 290 289 287 286 285 284 282 280 279 278 279 279 277 274 269 263 257 252 247 243 240 238 238 239 240 241 242 242 242 240 239 237 235 228 222 221 220 220 223 227 229 230 231 227 222 220 221 222 222 221 220 220 221 222 225 228 231 232 233 233
290 292 292 291 289 288 287 286 286 283 280 279 280 281 280 279 276 271 265 259 254 248 242 238 235 233 234 236 238 239 240 240 237 234 231 227 222 219 219 219 218 220 225 227 230 232 229 222 219 220 221 221 221 220 219 220 221 224 226 229 230 230 229
293 294 293 291 290 290 290 290 288 285 283 283 284 283 281 279 274 269 263 259 255 249 241 238 235 232 231 232 235 237 238 237 234 228 222 219 218 218 219 219 218 220 223 227 230 232 229 224 219 219 219 219 219 218 217 218 220 223 225 227 228 228 227
295 294 293 293 294 294 294 292 290 288 288 288 286 284 281 277 271 266 262 259 256 252 245 240 238 236 233 231 231 233 235 234 229 222 217 216 217 219 218 217 218 219 221 225 228 230 230 225 219 218 218 218 218 217 217 218 219 221 224 227 228 227 225
295 294 294 295 297 297 295 294 293 292 292 291 288 285 284 279 273 267 262 257 254 252 248 243 239 237 235 233 230 228 230 230 225 218 216 218 219 219 218 218 220 220 220 223 226 229 229 225 220 218 218 217 217 216 216 218 219 220 223 225 225 223 222